Location: Ahstedt
(52.2048°N, 10.1060°E)
Time: 23:56:39
(UTC+00:00)

Cosmos 540 Rocket - Pass Details

Date: 19 April 2026
Orbit: 734 x 748 km, 74.1° (Epoch: 15 May)

Event Time Altitude Azimuth Distance (km) Brightness Sun altitude
Exits shadow 01:34:32 12° 150° (SSE) 2,122 5.6 -20.3°
Maximum altitude 01:38:12 25° 99° (E) 1,484 5.2 -19.9°
Drops below altitude 10° 01:42:19 10° 46° (NE) 2,275 7.2 -19.6°
Sets 01:45:02 0° 33° (NNE) 3,205 8.4 -19.3°
